Regional Weather Roundup
Issued by NWS Charleston, WV

Home | Current Version | Previous Version | Graphics & Text | Print | Product List | Glossary On
Versions: 1 2 3 4 5 6 7 8 9 10 11 12 13 14 15 16 17 18 19 20 21 22 23 24 25 26 27 28 29 30 31 32 33 34 35 36 37 38 39 40 41 42 43 44 45 46 47 48 49 50
000
ASUS41 KRLX 200810
RWRRLX
West Virginia Regional Weather Roundup
National Weather Service Charleston WV
400 AM EDT FRI APR 20 2018

Note: "fair" indicates few or no clouds below 12,000 feet with no
significant weather and/or obstructions to visibility.

WVZ003-200900-
Northern Panhandle of West Virginia

CITY           SKY/WX    TMP DP  RH WIND       PRES   REMARKS
WHEELING       FAIR      31  19  61 W3        30.30R
$$

WVZ009-200900-
Northwest West Virginia

CITY           SKY/WX    TMP DP  RH WIND       PRES   REMARKS
PARKERSBURG    FAIR      36  21  54 N5        30.38R
$$

WVZ006-200900-
Western West Virginia

CITY           SKY/WX    TMP DP  RH WIND       PRES   REMARKS
HUNTINGTON     FAIR      39  30  70 N5        30.34R
$$

WVZ015-200900-
West Central West Virginia

CITY           SKY/WX    TMP DP  RH WIND       PRES   REMARKS
CHARLESTON     FAIR      33  30  88 CALM      30.32R
$$

WVZ022-031-200900-
North Central West Virginia

CITY           SKY/WX    TMP DP  RH WIND       PRES   REMARKS
CLARKSBURG     FAIR      34  19  54 N3        30.31R
MORGANTOWN     FAIR      31  22  69 CALM      30.30R
$$

WVZ025-035-042-045-200900-
Southern West Virginia

CITY           SKY/WX    TMP DP  RH WIND       PRES   REMARKS
BECKLEY        FAIR      33  25  72 W7        30.25R
LOGAN          FAIR      37  28  70 CALM      30.30R
BLUEFIELD      FAIR      31  24  75 W6        30.26R
LEWISBURG      FAIR      35  27  71 W3        30.24R
$$

WVZ047-200900-
Northern Mountains of West Virginia

CITY           SKY/WX    TMP DP  RH WIND       PRES   REMARKS
ELKINS         FAIR      33  17  51 NW6       30.26R
$$

WVZ052-200900-
Eastern Panhandle of West Virginia

CITY           SKY/WX    TMP DP  RH WIND       PRES   REMARKS
MARTINSBURG    FAIR      37  21  52 NW13      30.22R
PETERSBURG     FAIR      35  19  52 NW5       30.27R
$$



USA.gov is the U.S. government's official web portal to all federal, state and local government web resources and services.